[[{"header":{"parameterUnit":"m.s-1","parameterCategory":1,"la1":30.2992,"la2":30.254,"lo1":-89.0895,"lo2":-89.0443,"dy":0.0025,"dx":0.0025,"nx":19,"ny":19,"refTime":"2026-04-25T09:00:00:Z","depth":0,"parameterNumber":2,"parameterNumberName":"U-component_of_WINDS"},"data":[0,0,0,-0.7701,-0.77,-0.7663,-0.7663,-0.762,-0.762,0,0,0,0,0,0,0,0,0,0,0,-0.7715,-0.7715,-0.7701,-0.77,-0.7663,-0.7663,-0.762,-0.762,0,0,0,0,0,0,0,0,0,0,0,-0.7715,-0.7715,-0.7715,-0.77,-0.7663,-0.7662,-0.762,-0.7647,0,0,0,0,0,0,0,0,0,0,-0.7682,-0.7698,-0.7715,-0.7715,-0.77,-0.7663,-0.7662,-0.7648,-0.7645,-0.764,0,-0.7635,0,-0.7627,-0.7618,-0.7617,0,0,0,-0.7698,-0.77,-0.7688,-0.7715,-0.7699,-0.7663,-0.7679,-0.7646,-0.7643,-0.7636,-0.7634,-0.7633,-0.7626,-0.7617,-0.7617,-0.7592,-0.7592,0,0,-0.77,-0.771,-0.769,-0.7686,-0.7691,-0.768,-0.7678,-0.7644,-0.7644,-0.7634,-0.7632,-0.7626,-0.7617,-0.7617,-0.7592,-0.7592,0,0,0,-0.7707,-0.7711,-0.7699,-0.7688,-0.768,-0.7679,-0.7676,-0.7645,-0.764,-0.7631,-0.7625,-0.7617,-0.7616,-0.7592,-0.7592,-0.7601,0,0,0,-0.7709,-0.7716,-0.77,-0.7706,-0.7681,-0.7662,-0.7678,-0.7643,-0.7638,-0.7625,-0.7617,-0.7616,-0.7592,-0.7592,-0.7601,-0.7604,0,0,0,-0.7716,-0.7717,-0.7712,-0.7707,-0.7691,-0.7662,-0.7656,-0.7641,-0.7635,-0.7617,-0.7616,-0.7592,-0.7592,-0.7601,-0.7603,-0.76,0,0,0,-0.7728,-0.772,-0.7712,-0.7702,-0.7691,-0.7668,-0.7656,-0.7638,-0.7624,-0.7617,-0.7592,-0.7592,-0.7601,-0.7603,-0.76,-0.7599,-0.76,0,0,-0.7724,-0.772,-0.7713,-0.7705,-0.7686,-0.7673,-0.7655,-0.7633,-0.7623,-0.7603,-0.7602,-0.7601,-0.7603,-0.76,-0.76,-0.7601,0,0,0,-0.7716,-0.7711,-0.7704,-0.7691,-0.7674,-0.766,-0.764,-0.7632,-0.7615,-0.7615,-0.7599,-0.76,-0.7598,-0.7597,-0.7597,-0.7595,-0.7592,-0.7592,-0.7592,-0.7724,-0.7711,-0.7699,-0.7682,-0.767,-0.765,-0.7639,-0.7625,-0.7615,-0.7612,-0.7606,-0.7607,-0.7607,-0.7607,-0.7605,-0.7604,-0.7604,-0.7604,-0.7604,-0.7718,-0.7709,-0.7697,-0.7681,-0.7668,-0.7654,-0.7635,-0.7629,-0.7614,-0.761,-0.7608,-0.7604,-0.7608,-0.7605,-0.7605,-0.7605,-0.7605,-0.7605,-0.7605,-0.7722,-0.7716,-0.7706,-0.7687,-0.7674,-0.7657,-0.7644,-0.7633,-0.7622,-0.7619,-0.7612,-0.7612,-0.761,-0.7616,-0.7616,-0.7616,-0.7616,-0.7616,-0.7616,-0.773,-0.7719,-0.7709,-0.7692,-0.7682,-0.7669,-0.7649,-0.764,-0.7627,-0.7619,-0.7619,-0.761,-0.7611,-0.7611,-0.7616,-0.7616,-0.7616,-0.7616,-0.7616,-0.7728,-0.7727,-0.7712,-0.7703,-0.7681,-0.767,-0.7655,-0.7638,-0.7628,-0.7623,-0.7614,-0.7617,-0.7612,-0.7612,-0.7612,-0.7617,-0.7617,-0.7617,-0.7617,-0.7732,-0.7728,-0.7711,-0.7697,-0.7682,-0.7668,-0.7653,-0.7638,-0.7622,-0.7616,-0.7613,-0.7613,-0.7613,-0.7608,-0.7608,-0.7608,-0.7612,-0.7612,-0.7612,-0.773,-0.7725,-0.7713,-0.7698,-0.7681,-0.7666,-0.7652,-0.7637,-0.7619,-0.7612,-0.7611,-0.7611,-0.761,-0.761,-0.7602,-0.7602,-0.7602,0,0]},{"header":{"parameterUnit":"m.s-1","parameterCategory":1,"la1":30.2992,"la2":30.254,"lo1":-89.0895,"lo2":-89.0443,"dy":0.0025,"dx":0.0025,"nx":19,"ny":19,"refTime":"2026-04-25T09:00:00:Z","depth":0,"parameterNumber":3,"parameterNumberName":"V-component_of_WINDS"},"data":[0,0,0,4.5264,4.5265,4.5292,4.5291,4.5347,4.5347,0,0,0,0,0,0,0,0,0,0,0,4.5269,4.527,4.5264,4.5265,4.5292,4.5291,4.5346,4.5347,0,0,0,0,0,0,0,0,0,0,0,4.5268,4.5269,4.527,4.5265,4.5292,4.5291,4.5346,4.5319,0,0,0,0,0,0,0,0,0,0,4.5289,4.5306,4.5269,4.527,4.5265,4.5292,4.5291,4.5317,4.532,4.5344,0,4.5368,0,4.5359,4.5352,4.5353,0,0,0,4.5255,4.5304,4.5299,4.5271,4.5266,4.5292,4.5277,4.5319,4.5323,4.5348,4.5368,4.537,4.536,4.5353,4.5353,4.552,4.5521,0,0,4.5254,4.528,4.5297,4.5302,4.53,4.5276,4.5278,4.5321,4.5344,4.5368,4.5371,4.536,4.5353,4.5354,4.5519,4.552,0,0,0,4.5256,4.528,4.5274,4.5301,4.5304,4.5277,4.5279,4.5342,4.5338,4.5371,4.5361,4.5354,4.5355,4.5517,4.5519,4.5607,0,0,0,4.5255,4.5281,4.5274,4.5291,4.5304,4.5324,4.53,4.5335,4.5339,4.5361,4.5354,4.5355,4.5516,4.5518,4.5602,4.5644,0,0,0,4.5263,4.5282,4.529,4.5292,4.5304,4.5322,4.532,4.5335,4.5334,4.5353,4.5356,4.5515,4.5518,4.5597,4.5636,4.5697,0,0,0,4.5279,4.5367,4.5292,4.5387,4.5304,4.5376,4.5319,4.5371,4.5398,4.5354,4.5516,4.5519,4.5595,4.5631,4.5692,4.5753,4.5781,0,0,4.5406,4.5384,4.5437,4.5371,4.5463,4.537,4.5475,4.5474,4.545,4.5498,4.5502,4.5603,4.5636,4.5696,4.5926,4.5949,0,0,0,4.5487,4.5526,4.5544,4.5571,4.5573,4.5577,4.5557,4.5557,4.5596,4.5481,4.564,4.5659,4.5693,4.5721,4.574,4.5768,4.5533,4.5533,4.5532,4.5705,4.5671,4.5758,4.5727,4.5754,4.5733,4.5751,4.5747,4.5704,4.5743,4.5757,4.5901,4.5935,4.5949,4.5979,4.5786,4.5786,4.5786,4.5787,4.5888,4.5938,4.588,4.5943,4.5907,4.5959,4.5942,4.591,4.5954,4.5887,4.5916,4.5846,4.5975,4.5999,4.5793,4.5792,4.5791,4.579,4.579,4.6028,4.6046,4.6044,4.608,4.6111,4.6077,4.6122,4.6087,4.6054,4.6082,4.6093,4.6092,4.6087,4.6089,4.609,4.609,4.6091,4.6091,4.6092,4.6175,4.617,4.6212,4.6221,4.6234,4.6246,4.6226,4.6237,4.6241,4.6212,4.6212,4.6167,4.5993,4.5951,4.6099,4.6098,4.6097,4.6096,4.6096,4.6375,4.6324,4.639,4.6403,4.641,4.6444,4.6398,4.6425,4.643,4.6453,4.6401,4.6279,4.6254,4.6238,4.6203,4.6408,4.6408,4.6408,4.6408,4.6494,4.6478,4.6537,4.656,4.6578,4.6544,4.6619,4.6604,4.6581,4.6581,4.6546,4.6496,4.6482,4.6465,4.6445,4.6412,4.6665,4.6665,4.6666,4.6615,4.6599,4.6671,4.6647,4.665,4.6654,4.6724,4.6753,4.6716,4.6675,4.6581,4.657,4.6489,4.6465,4.6423,4.6393,4.6331,0,0]}]]